Location: Unspecified
(42.1900°N, 71.3291°W)
Time: 14:47:48
(UTC-04:00)

Cosmos 1674 - Visible Passes

Search period start: 25 September 2017 00:00
Search period end: 05 October 2017 00:00
Orbit: 497 x 523 km, 82.5° (Epoch: 24 September)

Date Brightness Start Highest point End Pass type
(mag) Time Alt. Az. Time Alt. Az. Time Alt. Az.
25 Sep 2.9 20:38:29 10° NNW 20:41:52 66° NW 20:41:52 66° NW visible
26 Sep 2.4 20:21:44 10° N 20:25:29 84° E 20:25:44 76° SSE visible
27 Sep 2.5 20:05:01 10° N 20:08:44 64° E 20:09:42 44° SE visible
28 Sep 2.8 19:48:19 10° N 19:51:58 48° E 19:53:47 25° SE visible
28 Sep 5.9 21:26:29 10° WNW 21:27:04 10° W 21:27:37 10° W visible
29 Sep 3.1 19:31:41 10° N 19:35:11 37° ENE 19:38:02 14° SE visible
29 Sep 5.7 21:08:34 10° WNW 21:10:24 13° W 21:12:14 10° WSW visible
30 Sep 3.5 19:15:05 10° NNE 19:18:23 29° ENE 19:21:40 10° SE visible
30 Sep 5.5 20:51:17 10° NW 20:53:44 17° W 20:56:10 10° SW visible
01 Oct 3.8 18:58:33 10° NNE 19:01:35 23° ENE 19:04:36 10° SE visible
01 Oct 5.2 20:34:11 10° NW 20:37:03 21° W 20:39:55 10° SW visible
02 Oct 4.8 20:17:10 10° NNW 20:20:22 27° W 20:23:32 10° SSW visible
03 Oct 4.3 20:00:14 10° NNW 20:03:39 34° W 20:07:03 10° SSW visible
04 Oct 3.8 19:43:21 10° NNW 19:46:56 45° W 19:50:30 10° SSW visible
